TIMESTAMP,CO2_1_1_1,H2O_1_1_1,TAU_1_1_1,TAU_SSITC_TEST_1_1_1,H_1_1_1,H_SSITC_TEST_1_1_1,LE_1_1_1,LE_SSITC_TEST_1_1_1,FC_1_1_1,FC_SSITC_TEST_1_1_1,WD_0_0_1,WS_0_0_1,WS_MAX_0_0_1,U_SIGMA_0_0_1,V_SIGMA_0_0_1,W_SIGMA_0_0_1,USTAR_0_0_1,MO_LENGTH_0_0_1,ZL_0_0_1,FETCH_MAX_0_0_1,FETCH_70_0_0_1,FETCH_80_0_0_1,FETCH_90_0_0_1,PA_0_0_1,RH_0_0_1,TA_0_0_1,VPD_0_0_1,T_SONIC_0_0_1,T_SONIC_SIGMA_0_0_1
[yyyymmddHHMMSS],[mmolCO2 mol-1],[mmolH2O mol-1],[kg m-1 s-2],[#],[W m-2],[#],[W m-2],[#],[umolCO2 m-2 s-1],[#],[Decimal degrees],[m s-1],[m s-1],[m s-1],[m s-1],[m s-1],[m s-1],[m],[#],[m],[m],[m],[m],[kPa],[%],[deg C],[hPa],[deg C],[deg C]
20220605003000,418.97961820082406,9.0487346877776069,7.0946133045941898E-002,0,-15.600133786079169,1,22.073096026162577,1,0.76591305084033334,1,75.598866002306394,1.7608496682442976,5.6940299365127398,0.77972228163985557,0.47045876104461970,0.30554451256316012,0.25254789859280002,85.726616288842493,0.22163478301747566,107.51531122980344,196.57227917785931,235.24681291526409,294.50109436757515,93.331572019192038,40.641034482758620,18.160689655172405,12.338276101610509,18.179904002370790,0.16363936126123318
20220605010000,419.74375428906779,9.3630613015051907,2.4123778859076832E-002,0,-10.250022417697483,0,21.685955021768820,0,1.1192390448724585,0,74.768842227504010,1.5834952117949619,3.0205379590423895,0.46752966075127339,0.35255556767908902,0.21528799624528711,0.14713331350435305,25.803769183344464,0.73632653683260785,167.06701433981340,1550.0000000000000,2846.0000000000000,7690.0000000000000,93.345093849392356,43.448999999999998,17.644000000000005,11.378534912242362,17.758870889451828,0.17886027242329849
20220605013000,421.15201284532498,9.3692401128200160,9.4775779117057549E-002,1,10.204157842099157,2,-9.5018947271901268,2,-1.8012135200022981,2,151.85215233905899,1.4276156059570666,3.8649311414209935,0.58549250814566201,1.0480142544344841,0.26241097116742335,0.29134445256942654,-201.25757196122927,-9.4406385880776725E-002,136.14281040357690,248.91247794008933,297.88466296036296,372.91624974635710,93.356881306857645,44.991666666666667,17.104333333333329,10.697039237470268,17.228125163608070,0.41939407386007388
20220605060000,429.80015171522439,12.224640759018945,0.14708902468561338,0,-38.488025964159569,0,-5.8768313222877433,0,6.4552278048556886,0,222.96830656383992,2.5247818680071457,5.3580160562371564,0.76667141376031689,0.57850981377438215,0.46407756222889118,0.35920000927376050,100.09036629052629,0.18982845906318138,102.01205920113121,186.51057929723427,223.20552795216264,279.42683446462576,93.430201017361114,87.000000000000000,11.050666666666643,1.7071196750454101,11.401439798143201,0.23181401991983167
20220605063000,429.27939121322055,12.410345784150175,9.0062183104542268E-002,0,-28.389715016537966,0,-1.2789114448594605,2,4.1807638784056289,0,218.93617137229623,2.3199842687173708,4.4511439893852005,0.62852965343988332,0.55357863487046821,0.39954447693382922,0.28098528700882663,64.946088284736035,0.29255033677625630,94.482126306023289,172.74346041605489,206.72980282261554,258.80118168309917,93.412824079210068,89.773333333333326,10.802666666666653,1.3209720023614455,11.172935434977205,0.24825510693634301
20220605070000,429.42680121298457,12.587924475302639,8.8918055643670002E-002,0,-36.940618034564842,0,-5.0491465428120810,0,5.3993018570355780,0,221.35013037917287,2.3676659319965885,5.0883904827922670,0.65891611226216662,0.52872507282852410,0.39156185945605104,0.27916068934228261,48.942739323810365,0.38820875705983643,95.520811571703845,174.64250835339359,209.00247817999909,261.64630154507478,93.398957753335452,91.840000000000003,10.672000000000025,1.0448908388421136,11.081124162382594,0.27194950544368474
20220605073000,429.44338283988390,12.656425485617865,3.2539915550066766E-002,0,-17.236948969104194,0,0.15772485953629578,2,1.9785983556850575,0,227.23531902629617,2.2220965634531682,4.1255118371824224,0.49813600829925425,0.39601196681605633,0.27106237756042934,0.16882335296995141,23.197627512373241,0.81904927518409831,241.04449888671883,2329.0000000000000,4328.0000000000000,-9999.,93.390860477430564,93.623333333333335,10.463666666666654,0.80527003444442469,10.903636060926658,0.24877880232934821
20220605080000,430.49826374163814,12.665581889186239,6.9903383332092131E-002,0,-19.164898357379172,0,-1.8757981356470979,0,1.5462569489682529,0,225.44874567625681,2.5744804115551427,4.5703352803472646,0.56509110977623467,0.42501832502275211,0.33839637555956270,0.24740162041600475,65.660759501729288,0.28936613198176003,97.462235678551906,178.19205080617289,213.25037393018380,266.96416295065899,93.390377074652775,94.286666666666662,10.368666666666684,0.71694037046961512,10.760568408542213,0.25052826265068517
20220605083000,432.36473151019720,12.630199628194104,6.9078768917756439E-002,0,-25.444493805150106,0,-1.3986283641969222,0,2.2103200667170682,0,226.09901688012457,2.5785473778315042,4.7214043699056853,0.55845096946162287,0.47212776076868335,0.33556512296047353,0.24586974633601075,48.540979936435647,0.39142184654863738,97.633199476811427,178.50462715549813,213.62444798721256,267.43245928081654,93.386201850694448,95.069999999999993,10.202333333333343,0.61180473232023813,10.632858835856155,0.25798387982622467
20220605090000,432.78666886781423,12.570855323309116,9.2718199881755253E-002,0,-28.995350785851510,0,-1.3156052073528199,0,2.9054342052405242,0,225.07856000807345,2.7352249967385438,4.9566311346663667,0.59286286368667274,0.46528854316503676,0.36965981838997813,0.28478875228266826,66.187822102587390,0.28706187024179569,101.63221000094765,185.81609381260986,222.37440620113497,278.38636865683389,93.373092476996533,95.590000000000003,10.048333333333346,0.54166300904480069,10.428769322713265,0.25875786138279705
20220605093000,433.60598168374207,12.517846561656111,6.9004611155487547E-002,0,-15.229518354428267,0,-0.53547504910793320,1,1.5105596294949915,0,224.80445875610434,2.5997647461692570,4.8672476036957013,0.54880861985434870,0.44887257430856176,0.35268664147543216,0.24557950497663550,80.805301528977864,0.23513308706838185,93.734051078987918,171.37574031467761,205.09299118185504,256.75208774000214,93.378295670355911,96.623333333333335,9.8256666666666774,0.40859986701726941,10.174656851026782,0.19367165450872295
20220605100000,434.03802954071250,12.581852572418853,3.9339314119575600E-002,0,-15.178995277133353,0,-0.85516013773330646,0,1.4605633392204895,0,233.23896491250235,2.7131641872294727,4.7564524665950403,0.52998306480137669,0.42356525780178661,0.30223454519233650,0.18542687826385487,34.902525322212902,0.54437321725565491,270.16285164329810,2741.0000000000000,5164.0000000000000,-9999.,93.386466226996532,96.956666666666663,9.8516666666666879,0.36890696923111821,10.315041334364196,0.21954317817184385
20220605103000,433.79097514286224,12.684488092192353,3.3831247974286750E-002,0,-10.460284148293093,0,3.6306153553315181,1,0.73281595618544626,1,235.06566622404813,2.4231729161187210,4.0216971161780597,0.45106697111718758,0.35801156603371009,0.24073768541703308,0.17197150644243864,40.406038609803410,0.47022674465767039,248.34518292545411,2496.0000000000000,4690.0000000000000,-9999.,93.395570201822920,97.323333333333338,9.9180000000000064,0.32590649656355480,10.334613662719732,0.22471661562957634
20220605110000,432.22891129370663,13.098562621575041,9.9884758964207274E-002,0,-5.9354058186369967,2,24.274229812718183,2,-0.12570586147225421,2,246.45210885883606,2.5716459482650302,4.5991734909868232,0.58886184159982369,0.48554871608383166,0.34631570354841335,0.29574458915147245,362.21952489505748,5.2454378337293370E-002,110.35972205232069,201.77276933972374,241.47047141529526,302.29237628343026,93.400706164930554,97.503333333333330,10.371333333333325,0.31335121256559662,10.787791293674047,0.23466504648457134
20220605113000,430.82510079120703,13.377961748561383,0.12505971210947139,0,-13.948718221904992,0,-5.4651713845799295,1,-0.81175993732042595,0,256.12844061763673,2.3453166265078988,4.6726529660991076,0.69692565349529279,0.58313121995346873,0.41734958930053712,0.33125730253484176,216.62347084037003,8.7709793986271739E-002,104.08479142419462,190.30019486503090,227.74072990549402,285.10436914355523,93.414627343098957,95.780000000000001,10.957999999999970,0.55075561434337039,11.352787595960876,0.17866745212748950
20220605120000,429.89208766819473,13.450447954845766,7.5815719389589031E-002,0,-5.0299979699483455,0,3.0879436273811121,1,-2.5452628516357723,0,259.06045330839567,2.3455782765278892,4.7217986493017792,0.61202544398926717,0.48459437048570847,0.35293213326568312,0.25808804481424369,284.13134849588528,6.6870481207303864E-002,97.480163493764067,178.22482857016411,213.28960054212357,267.01327001400847,93.424133488281257,93.849999999999994,11.347666666666669,0.82366980399738399,11.724005596584789,9.4936371060743777E-002
20220605123000,427.39937633237162,13.515155019396724,0.10621226766465459,1,42.128674674607581,1,22.704460847347328,0,-5.2152346286654012,1,261.47964781308531,1.9818196384885947,4.3650331383603298,0.61913835013274077,0.60653572041063086,0.43514174103710962,0.30588573422650134,-56.477023191015753,-0.33641999748709278,94.449069175328077,172.68302143811297,206.65747280234945,258.71063308071842,93.417587057633142,89.803333333333327,12.086333333333357,1.4339431089512755,12.359544576031794,0.30966134146321544
20220605130000,424.38747384657557,13.548629586838253,0.16468119314242852,0,29.360993341544216,1,32.335208269226548,0,-3.4020753548942553,1,265.05576702504993,1.8817455913979793,4.5215277073779374,0.75268480586440434,0.58519512017510666,0.49080387578742712,0.38162252841666550,-157.33580764500309,-0.12076081271257535,102.38485430121285,187.19216763708249,224.02121511486996,280.44797799937544,93.391690364583340,84.159999999999997,13.108999999999980,2.3821523615131630,13.358542293972505,0.32953152228006094
20220605133000,421.51030470668303,13.766395079058769,0.24638826631559141,1,95.105625489679184,0,24.816194799868008,1,-8.3469371697813095,0,277.15669234138863,1.7738374327226047,5.5299069718018936,0.88999742408790139,0.87864554651289295,0.54916890036263988,0.46771176506460616,-89.414187580826763,-0.21249424184304955,110.12166963274575,201.33753359381558,240.94960538820379,301.64031382572296,93.378608336371528,79.765666666666661,14.175999999999988,3.2617975816215607,14.435086854722840,0.41477941222989523
20220605140000,421.12093029493980,13.477680192506897,0.13003324914623007,1,81.612897854978414,0,40.732174418431747,0,-7.2831798286480200,0,273.26113831722421,1.7739681081229741,4.7203101330741770,0.85138498987777567,0.70103393703896144,0.53800658815550950,0.34005926875321424,-40.045117972656932,-0.47446482772190418,86.749807151650003,158.60631490515172,189.81125032340898,237.62116158256623,93.373904100021534,75.640000000000001,14.668666666666638,4.0539921897600610,14.859476915281732,0.32521997002828096
20220605143000,419.80712987388227,13.114199823909550,0.18239594963212521,1,98.114750213748692,0,176.76573307361502,0,-11.415103995204054,0,241.88185223969930,1.5891605570009795,6.1076514225230172,0.73698607824266571,0.84388866360596615,0.54858919810469509,0.40328968345100680,-55.552552897941091,-0.34201848535936835,97.892808459738390,178.97927517432703,214.19248043895524,268.14356850521557,93.362755923394104,69.997666666666660,15.446666666666658,5.2493243429737575,15.675649437798484,0.38704062756029456
20220605150000,418.71467723892982,13.132499471923024,0.24235224080322687,1,146.76166104816792,0,18.244548606849001,2,-11.922529379122379,0,286.91396485370126,2.3057288594608152,5.9680798702952575,1.0203086351259520,0.78048246403069688,0.57465887143506866,0.46542868124832981,-57.080177233290129,-0.33286511922249040,105.78140261167924,193.40214122213783,231.45296744679689,289.75165003513479,93.346063374348944,67.277666666666661,16.084999999999980,5.9639394054285937,16.098342089335119,0.44543773800828723
20220605153000,417.53484342610693,13.671419271528984,0.31799082122046807,1,191.74300670444319,0,113.38673151776011,0,-12.490724990689060,0,278.66644899292783,2.0246540422622004,6.1176116837794492,1.0177162323838143,1.0513322807151397,0.69639379062311868,0.53382775941652671,-65.913169771532509,-0.28825802287854746,101.22596150826283,185.07334200167071,221.48552198490029,277.27359109694629,93.317255932187209,67.376333333333335,16.688666666666677,6.1789892480341679,16.825429789027396,0.61576527460206143
20220605160000,417.14419502829446,13.840174282657077,0.37628370565745667,1,219.16908542186039,0,149.95886282498606,0,-11.879446472906517,0,284.34575751379958,2.5266487047896273,6.1940611668452084,1.1276342407935356,1.0155165926193610,0.75672047987203273,0.58137534191473872,-74.478633414410552,-0.25510672160539094,101.40790154541921,185.40598641639124,221.88361239075178,277.77195304594630,93.297685455512152,65.668333333333337,17.283999999999992,6.7525498862341538,17.305309266832182,0.55908375068741190
20220605163000,416.77229313438619,13.885995201998947,0.36905484998277188,1,223.23812964205302,0,161.75362382149459,0,-13.299598540921009,0,289.86066375952981,2.1655988691347172,6.0236680782373577,1.1318204649072645,0.99459937345074889,0.71552489309477840,0.57632329226507018,-71.222609756175501,-0.26676921928366387,105.31446830544488,192.54843638928256,230.43130080112581,288.47264463012914,93.279201120876735,63.818333333333335,17.786000000000001,7.3455009340714223,17.865928048875617,0.57766927308533167
20220605170000,415.90401637009739,13.673838048641697,0.36430264558506620,0,142.19079213581173,0,162.33038227270293,0,-11.429802273681355,0,287.10178897871651,2.5844216682209553,6.2600072471128057,1.1513627283304797,0.82688546005160846,0.66926056779660070,0.57312293100132894,-109.96088530698577,-0.17278871434107068,110.60555464979912,202.22222973219993,242.00836071130328,302.96574985376645,93.275969320312512,60.727333333333334,18.330333333333328,8.2505492818585520,18.471590276082395,0.43499445672765730
20220605173000,415.46960055477695,12.953216485196236,0.19300367162380863,0,76.317584167832209,0,58.019929364911718,0,-6.4265433947871333,0,269.01490996125159,1.8378450674800735,5.7792274122277378,1.0350857838005700,0.88132563183962187,0.60643694641769230,0.41744797729042060,-79.146640351918848,-0.24006072671585435,92.877018803432080,169.80881197853662,203.21777816257543,254.40454356073585,93.255770519097226,56.008666666666663,18.754000000000019,9.4903386318374263,18.910922222561339,0.44763879550059260
20220605180000,414.35128895352176,12.716414998453635,0.62977659871543989,0,317.93445865194457,0,226.51545653877614,0,-13.441517009484032,0,219.05028503452388,2.7395302495583373,9.0590994468113735,1.5379475599475088,1.2108263863429336,0.90761612715968620,0.75569596306842701,-112.67736250787463,-0.16862304527825769,108.14608901690059,197.72554214892980,236.62697414416272,296.22889245026693,93.222269888671875,51.074333333333335,19.933666666666682,11.358863768602420,19.819294677734433,0.71952454413615008
20220605183000,414.42021432711681,12.350470936568952,0.67071654232737776,0,269.17462457648230,0,202.37644669274309,0,-12.135520533623334,0,212.48057095901396,2.6143828810552239,7.5231205417560281,1.4693252387886928,1.2843621525160667,0.86316003264769225,0.78051212792095181,-146.56032813531368,-0.12963944773962302,115.52755074981594,211.22120839317265,252.77783979726766,316.44785971651578,93.162752980685752,48.557000000000002,20.268333333333317,12.193173439635098,20.073210835774717,0.74445768017994496
20220605190000,414.96727038127398,11.555698491985003,0.51123172651389470,0,28.655775605238443,2,93.348009910897503,1,-7.4522877544109321,0,243.14060470357339,2.7187146720523172,8.5330818919000322,1.3724700566857830,1.3498930723498090,0.81897240224265355,0.68087903298157215,-913.82263382229792,-2.0791780917624701E-002,108.01783156418385,197.49104661974710,236.34634288672487,295.87757541687120,93.167055852213537,46.484666666666669,19.899000000000001,12.397769755369012,19.895535516526991,0.46817646001791230
20220605193000,418.05459331736000,11.611153568731675,0.81184920476903655,0,-120.02458750032824,2,138.63934272497659,1,1.3330335519926089,2,330.72873113314415,3.4903103303709035,11.444932472888226,2.0287193987980108,1.7955279443050320,0.93720296364924527,0.85307423115440451,429.36455133011850,4.4251440742232535E-002,116.13882715182631,212.33881661265676,254.11533139486801,318.12224048418472,93.256740367404504,56.777999999999999,16.801333333333332,8.2451174833684284,16.545317258198622,1.9744747198592827
20220605200000,419.09672222328521,12.428880794527826,0.47220871722017449,0,24.509182487936890,1,10.605491326724367,2,-3.8348388431660405,0,343.32911324734062,2.9164999450908278,10.044618108540167,1.5334254497901803,1.2457840178192261,0.77675916315872995,0.64652352630543908,-915.91775308814579,-2.0744220685688014E-002,108.11681865828879,197.67202659808535,236.56292969786432,296.14871640329181,93.336927159071180,76.035666666666671,13.333666666666659,3.6572108085759716,13.492528525458397,0.48803646977600257
20220605203000,418.63141052318423,13.454193268060560,2.9276604281896303E-002,1,-13.612719265601484,1,7.8274920542876396,1,-1.9952780398626884,1,335.54661064091465,1.3900494506268970,4.6498864194469292,0.71426004880199767,0.82684719041629429,0.35216515922407593,0.16065009032665031,25.308038923143275,0.75074959611450554,111.35346921085224,976.00000000000000,1763.0000000000000,4630.0000000000000,93.355275573133682,89.269999999999996,12.098000000000013,1.5101051675795043,12.676377719455331,0.37449831042852944
20220605210000,418.01524294373434,13.726667832611751,7.9750452641767944E-002,0,-3.2309661959644926,1,-27.961833615499135,2,-1.5926119146226052,0,295.54336340452710,1.6977701872005246,3.8157235035345174,0.54391657178736819,0.68235591570397047,0.30480663589458273,0.26521249572578198,479.82609500997972,3.9597679654343992E-002,112.02386476984529,204.81535297845636,245.11166694415394,306.85072100558148,93.370951555381154,90.146666666666661,12.256666666666661,1.4012863481364979,12.927001713026755,0.20613106187396471
20220605213000,417.50606956973587,13.184322521387172,0.60118023848594615,1,45.372511553625415,2,-157.30597715834986,1,-1.6008597805379252,1,342.86975679527779,0.65764220232748072,5.1001859470359134,2.0635669837436974,0.69869701652984739,0.37044260662477035,0.72892203131563305,-709.07203878301164,-2.6795584878244409E-002,215.19046105727674,393.43679429016515,470.84335760596156,589.44001141731064,93.323588695529537,83.704000000000008,12.764333333333354,2.3960756865804389,13.347873775906010,0.41115702093946810
20220605220000,417.55612218978695,14.087873771357811,8.7143542851446487E-002,1,-12.352086134803084,1,54.861150061493483,1,0.96028308963338738,2,118.08958367963719,1.3687697319325742,4.1731189431093263,0.85792213020523378,0.60693592814097264,0.27111519413814394,0.27750899991466110,143.70693934296389,0.13221351791965688,127.57144408514378,233.24128661291692,279.13024941985049,349.43794947330542,93.287623284288188,90.786666666666662,12.530666666666662,1.3340763115162166,13.021807988484738,0.18763207308891022
20220605223000,417.32169458678567,14.814150174304826,8.3999085477986318E-002,0,-0.17775373874436037,2,13.802316455304378,1,0.32726395889136728,2,62.608676235150739,1.0153499054227060,3.3099994625855276,0.68264313520046671,0.64166268579299901,0.30071384832946607,0.27257947027007651,9462.5559198409701,2.0079141577553096E-003,115.75151170557531,211.63068044898404,253.26787326745159,317.06132347169910,93.259051296715256,94.863333333333330,12.622666666666646,0.74828530817209415,13.047324293933343,8.3285800228708448E-002
20220605230000,417.29994577811465,14.205946971568517,5.3274685865012168E-002,1,18.132307145767911,2,-57.309273910308548,2,-1.6684243233293590,1,49.446371618673368,0.44094825068240473,2.2991733037943458,0.66156467408242348,0.47143009697135063,0.19184831735970423,0.21713188655557633,-46.888058926029302,-0.40522044279918773,138.25071588220956,252.76640143700106,302.49682508037080,378.69012942153995,93.271434449218759,89.529666666666671,12.867999999999995,1.5499898883099945,13.446728835211957,0.37039225322581282
20220605233000,419.26940588323106,14.263060727732451,0.34448663749108882,1,36.748646729398530,1,-170.81302773859241,1,-4.8296422454568173,1,294.08572596478643,1.5366687294907577,5.8146199185139347,1.1643476041129674,0.96034659715643977,0.33698858316687219,0.55221363821417069,-380.57514422365500,-4.9924437495145899E-002,185.88675769807062,339.86027861270065,406.72595197307311,509.17262801306913,93.274725567274302,89.423333333333332,12.947999999999979,1.5739508025111151,13.512864408705013,0.31963615684372615
20220606000000,419.90094692865688,13.006261731591461,0.57755181897148855,1,-46.132435695171431,1,136.35498134311425,1,-0.85036626212339084,2,35.206721677413270,0.79826178530235925,3.6322246481070914,0.43242736239054891,1.5646953370880687,0.37862689462221211,0.71515967288859994,658.38929248295233,2.8858306501836021E-002,208.26109420179910,380.76770167014428,455.68168947120097,570.45940206158127,93.278457314019093,80.160666666666671,13.210333333333324,3.0034200619514380,13.761088368733738,0.47062417503252318
